Moline, IL
on Sunday, October 7, 2012

Sunday
Previous Day Next Day
Daily Summary
 ActualAverageRecord
Temperature
Mean Temperature °F 56°F  
Max Temperature 52°F 68°F 92°F (1939)
Min Temperature 34°F 45°F 27°F (1952)
Degree Days
Heating Degree Days 22 9  
Month to date heating degree days 107 59  
Since 1 July heating degree days 254 163  
Cooling Degree Days 0 1  
Month to date cooling degree days 0 7  
Year to date cooling degree days 1200 996  
Moisture
Dew Point 23°F   
Average Humidity 46    
Maximum Humidity 64    
Minimum Humidity 28    
Precipitation
Precipitation 0.00 in 0.09 in 4.12 in (1884)
Month to date precipitation 0.09 0.65  
Year to date precipitation 20.32 30.90  
Snow
Snow 0.00 in 0.00 in in ()
Month to date snowfall 0.0 0.0  
Since 1 July snowfall T 0.0  
Since 1 September snowfall T 0.0  
Snow Depth 0.00 in   
Wind
Wind Speed 6 mph   
Max Wind Speed 15 mph   
Max Gust Speed 21 mph   
Visibility 10 miles   
Events     

Key: T is trace of precipitation, MM is missing value
Source: NWS Daily Summary
Time(CDT)TemperatureDew PointHumidity Pressure Visibility Wind DirectionWind SpeedGust SpeedPrecipitationEvents Conditions
12:52 AM 42.1°F 27.0°F 55% 30.24 in 10.0 miles WNW 8.1 mph - N/A   Overcast
1:52 AM 41.0°F 26.1°F 55% 30.24 in 10.0 miles NW 5.8 mph - N/A   Overcast
2:52 AM 41.0°F 26.1°F 55% 30.23 in 10.0 miles NW 6.9 mph - N/A   Overcast
3:52 AM 39.0°F 26.1°F 60% 30.22 in 10.0 miles West 6.9 mph - N/A   Overcast
4:52 AM 39.0°F 26.1°F 60% 30.22 in 10.0 miles WNW 5.8 mph - N/A   Overcast
5:52 AM 39.0°F 26.1°F 60% 30.22 in 10.0 miles WNW 6.9 mph - N/A   Overcast
6:52 AM 37.9°F 25.0°F 60% 30.22 in 10.0 miles WNW 5.8 mph - N/A   Overcast
7:52 AM 39.0°F 25.0°F 57% 30.23 in 10.0 miles WNW 5.8 mph - N/A   Overcast
8:52 AM 41.0°F 25.0°F 53% 30.25 in 10.0 miles WNW 6.9 mph - N/A   Mostly Cloudy
9:52 AM 43.0°F 24.1°F 47% 30.25 in 10.0 miles WNW 5.8 mph - N/A   Overcast
10:52 AM 45.0°F 21.0°F 39% 30.25 in 10.0 miles WNW 10.4 mph - N/A   Overcast
11:52 AM 48.0°F 19.9°F 33% 30.24 in 10.0 miles WNW 5.8 mph - N/A   Mostly Cloudy
12:52 PM 48.9°F 21.0°F 33% 30.23 in 10.0 miles WSW 6.9 mph - N/A   Clear
1:52 PM 50.0°F 21.9°F 33% 30.19 in 10.0 miles WSW 10.4 mph 18.4 mph N/A   Clear
2:52 PM 51.1°F 21.9°F 32% 30.17 in 10.0 miles WSW 11.5 mph - N/A   Clear
3:52 PM 51.1°F 21.0°F 31% 30.15 in 10.0 miles WSW 5.8 mph - N/A   Clear
4:52 PM 51.1°F 19.0°F 28% 30.14 in 10.0 miles West 9.2 mph - N/A   Clear
5:52 PM 48.9°F 19.0°F 31% 30.14 in 10.0 miles SW 5.8 mph - N/A   Clear
6:52 PM 44.1°F 21.0°F 40% 30.14 in 10.0 miles SSW 5.8 mph - N/A   Clear
7:52 PM 41.0°F 21.9°F 47% 30.14 in 10.0 miles South 5.8 mph - N/A   Clear
8:52 PM 39.0°F 23.0°F 53% 30.15 in 10.0 miles South 3.5 mph - N/A   Clear
9:52 PM 39.0°F 23.0°F 53% 30.15 in 10.0 miles South 3.5 mph - N/A   Clear
10:52 PM 37.9°F 23.0°F 55% 30.15 in 10.0 miles South 3.5 mph - N/A   Clear
11:52 PM 35.1°F 24.1°F 64% 30.14 in 10.0 miles Calm Calm - N/A   Clear
Astronomy
Sunrise:07:05 AM (CDT) Moon Rise:11:42 PM (CDT)10/7
Sunset:06:32 PM (CDT) Moon Set:01:45 PM (CDT)10/7
Moon Phase
Oct. 07 Oct. 08 Oct. 15 Oct. 22 Oct. 29

Copyright © 2016 The Weather Underground, Inc.















  Today is Tuesday July 26, the 208th day of 2016. There are 158 days left in the year.
1866 -- 150 years ago: The First National Bank Association of Moline has purchased a lot on the corner of Mill and Main streets and will soon begin the erection of building.
1891 -- 125 years ago: Messrs. S.S. Kemble, M.J. Galt and Ralph Haverstick reported catching huge strings of fish on their fishing trip at Watertown.
1916 -- 100 years ago: A.L. Larson saved several people from possible serious injury when he stopped a team of runaway horses after a dash of many blocks.
1941 -- 75 years ago: The Rock Island Retail Grocers and Meat Dealers Association will be closed tomorrow for the excursion to Muscatine and back.
1966 -- 50 years ago: A new 80-by-120 foot horse barn has been built to accommodate 100 horses for future projects at the Rock Island County Fairgrounds in East Moline. A similar structure to house the hog shows at the county fair also has been erected.
1991 -- 25 years ago: The two Hogan's Shell service station/video stores in Moline have been sold back to Shell Oil Co. and are being renovated into Mother Hubbard's Cupboard convenience stores.